This is the latest recevied weather packets stored in our database for station/object OE3BCB-14. If no packets are shown the sender has not sent any weather packets the latest 10 day(s).
| Time | Temp. | Humidity | Pressure | Rain* | Wind** | Luminosity | Snow |
|---|---|---|---|---|---|---|---|
| 1777367625 | 25.56° C | 36% | 1022.2 hPa | - | - | 220 W/m² | - |
| 1777367322 | 24.44° C | 38% | 1022.2 hPa | - | - | 259 W/m² | - |
| 1777366415 | 23.33° C | 41% | 1022.3 hPa | - | - | 111 W/m² | - |
| 1777366112 | 22.78° C | 40% | 1022.3 hPa | - | - | 317 W/m² | - |
| 1777365810 | 22.78° C | 40% | 1022.3 hPa | - | - | 357 W/m² | - |
| 1777365508 | 22.22° C | 40% | 1022.3 hPa | - | - | 343 W/m² | - |
| 1777365205 | 21.67° C | 42% | 1022.3 hPa | - | - | 297 W/m² | - |
| 1777364903 | 22.22° C | 42% | 1022.4 hPa | - | - | 300 W/m² | - |
| 1777364600 | 22.22° C | 43% | 1022.4 hPa | - | - | 328 W/m² | - |
| 1777364298 | 21.11° C | 44% | 1022.3 hPa | - | - | 218 W/m² | - |
| 1777363996 | 20.56° C | 43% | 1022.4 hPa | - | - | 110 W/m² | - |
| 1777363693 | 20° C | 45% | 1022.5 hPa | - | - | 86 W/m² | - |
| 1777363391 | 19.44° C | 45% | 1022.5 hPa | - | - | 78 W/m² | - |
| 1777363088 | 17.22° C | 46% | 1022.4 hPa | - | - | 80 W/m² | - |
| 1777362786 | 16.67° C | 45% | 1022.5 hPa | - | - | 91 W/m² | - |
| 1777362484 | 16.11° C | 46% | 1022.5 hPa | - | - | 76 W/m² | - |
| 1777362181 | 16.11° C | 46% | 1022.6 hPa | - | - | 67 W/m² | - |
| 1777361879 | 15.56° C | 46% | 1022.6 hPa | - | - | 70 W/m² | - |
| 1777361576 | 15.56° C | 46% | 1022.6 hPa | - | - | 72 W/m² | - |
| 1777361274 | 15.56° C | 46% | 1022.6 hPa | - | - | 74 W/m² | - |
| 1777360971 | 15.56° C | 47% | 1022.5 hPa | - | - | 73 W/m² | - |
| 1777360669 | 15° C | 47% | 1022.5 hPa | - | - | 66 W/m² | - |
| 1777360367 | 15° C | 47% | 1022.6 hPa | - | - | 61 W/m² | - |
| 1777360064 | 14.44° C | 47% | 1022.5 hPa | - | - | 58 W/m² | - |
| 1777359459 | 15° C | 47% | 1022.6 hPa | - | - | 52 W/m² | - |
* Rain since midnight (hover to see other rain measurements)
** Current wind speed in m/s (hover to see current wind gust speed)